When you browse on this site, cookies collect data to enhance your experience and personalize the content and advertising you see.
Visit our Privacy Policy to learn more. By continuing to use the site, you agree to this use of cookies and data.
  • In Österreich
  • Länderverzeichnis
  • Für 7 Tage
  • Wassertemperatur
  • Satellitenkarten
  • Wetterkarte
  • News
  • Widgets
  • user-avatar
    Anmelden

    Stündliche Wetter Gryada

    Heute, 24 Mai, Freitag

    Zeit Temperatur Niederschläge Wind Luftdruck Luftfeuchtigkeit
    00:00 +16°C° 0 mm 1 m/S 745 mmHg 89%
    01:00 +15°C° 0 mm 1 m/S 745 mmHg 90%
    02:00 +15°C° 0 mm 1 m/S 745 mmHg 91%
    03:00 +15°C° 0 mm 1 m/S 745 mmHg 91%
    04:00 +15°C° 0 mm 1 m/S 746 mmHg 92%
    05:00 +14°C° 0 mm 2 m/S 746 mmHg 93%
    06:00 +16°C° 0 mm 2 m/S 746 mmHg 88%
    07:00 +18°C° 0 mm 2 m/S 746 mmHg 84%
    08:00 +20°C° 0 mm 2 m/S 746 mmHg 79%
    09:00 +21°C° 0.4 mm 2 m/S 746 mmHg 74%
    10:00 +23°C° 0.4 mm 2 m/S 746 mmHg 69%
    11:00 +24°C° 0.4 mm 2 m/S 746 mmHg 63%
    12:00 +25°C° 0.1 mm 2 m/S 746 mmHg 62%
    13:00 +25°C° 0.1 mm 3 m/S 746 mmHg 61%
    14:00 +25°C° 0.1 mm 3 m/S 745 mmHg 60%
    15:00 +25°C° 0.3 mm 3 m/S 745 mmHg 63%
    16:00 +24°C° 0.3 mm 3 m/S 745 mmHg 67%
    17:00 +24°C° 0.3 mm 3 m/S 745 mmHg 70%
    18:00 +21°C° 0.4 mm 2 m/S 745 mmHg 77%
    19:00 +20°C° 0.4 mm 2 m/S 745 mmHg 85%
    20:00 +18°C° 0.4 mm 2 m/S 745 mmHg 92%
    21:00 +17°C° 0 mm 2 m/S 745 mmHg 93%
    22:00 +16°C° 0 mm 2 m/S 745 mmHg 95%
    23:00 +15°C° 0 mm 2 m/S 745 mmHg 97%

    Morgen, 25 Mai, Samstag

    Zeit Temperatur Niederschläge Wind Luftdruck Luftfeuchtigkeit
    00:00 +15°C° 0 mm 2 m/S 745 mmHg 97%
    01:00 +15°C° 0 mm 2 m/S 745 mmHg 97%
    02:00 +14°C° 0 mm 2 m/S 745 mmHg 98%
    03:00 +14°C° 0.1 mm 2 m/S 744 mmHg 98%
    04:00 +14°C° 0.1 mm 2 m/S 744 mmHg 98%
    05:00 +14°C° 0.1 mm 2 m/S 744 mmHg 98%
    06:00 +15°C° 0 mm 2 m/S 744 mmHg 94%
    07:00 +16°C° 0 mm 2 m/S 745 mmHg 90%
    08:00 +17°C° 0 mm 3 m/S 745 mmHg 86%
    09:00 +19°C° 0 mm 3 m/S 745 mmHg 78%
    10:00 +20°C° 0 mm 3 m/S 745 mmHg 71%
    11:00 +22°C° 0 mm 4 m/S 745 mmHg 63%
    12:00 +23°C° 0 mm 4 m/S 744 mmHg 60%
    13:00 +23°C° 0 mm 4 m/S 744 mmHg 56%
    14:00 +25°C° 0 mm 5 m/S 744 mmHg 53%
    15:00 +23°C° 0 mm 4 m/S 744 mmHg 53%
    16:00 +23°C° 0 mm 4 m/S 744 mmHg 52%
    17:00 +23°C° 0 mm 4 m/S 744 mmHg 52%
    18:00 +21°C° 0 mm 3 m/S 744 mmHg 59%
    19:00 +19°C° 0 mm 2 m/S 744 mmHg 67%
    20:00 +18°C° 0 mm 1 m/S 744 mmHg 74%
    21:00 +16°C° 0 mm 2 m/S 745 mmHg 77%
    22:00 +15°C° 0 mm 2 m/S 745 mmHg 81%
    23:00 +15°C° 0 mm 2 m/S 745 mmHg 84%

    übermorgen, 26 Mai, Sonntag

    Zeit Temperatur Niederschläge Wind Luftdruck Luftfeuchtigkeit
    00:00 +14°C° 0 mm 2 m/S 745 mmHg 87%
    01:00 +13°C° 0 mm 2 m/S 745 mmHg 90%
    02:00 +13°C° 0 mm 2 m/S 746 mmHg 94%
    03:00 +13°C° 0 mm 2 m/S 746 mmHg 94%
    04:00 +12°C° 0 mm 2 m/S 746 mmHg 94%
    05:00 +12°C° 0 mm 1 m/S 746 mmHg 94%
    06:00 +14°C° 0 mm 2 m/S 746 mmHg 84%
    07:00 +15°C° 0 mm 2 m/S 746 mmHg 75%
    08:00 +17°C° 0 mm 2 m/S 746 mmHg 66%
    09:00 +18°C° 0 mm 2 m/S 746 mmHg 64%
    10:00 +19°C° 0 mm 3 m/S 746 mmHg 61%
    11:00 +19°C° 0 mm 3 m/S 746 mmHg 59%
    12:00 +20°C° 0 mm 4 m/S 746 mmHg 57%
    13:00 +21°C° 0 mm 4 m/S 746 mmHg 54%
    14:00 +22°C° 0 mm 5 m/S 746 mmHg 51%
    15:00 +22°C° 0 mm 5 m/S 746 mmHg 52%
    16:00 +22°C° 0 mm 5 m/S 746 mmHg 53%
    17:00 +21°C° 0 mm 5 m/S 745 mmHg 55%
    18:00 +20°C° 0.1 mm 4 m/S 745 mmHg 63%
    19:00 +18°C° 0.1 mm 3 m/S 745 mmHg 72%
    20:00 +17°C° 0.1 mm 3 m/S 745 mmHg 80%
    21:00 +16°C° 0 mm 3 m/S 746 mmHg 84%
    22:00 +16°C° 0 mm 3 m/S 746 mmHg 88%
    23:00 +14°C° 0 mm 3 m/S 746 mmHg 92%

    27 Mai, Montag

    Zeit Temperatur Niederschläge Wind Luftdruck Luftfeuchtigkeit
    00:00 +13°C° 0 mm 3 m/S 747 mmHg 93%
    01:00 +13°C° 0 mm 2 m/S 747 mmHg 95%
    02:00 +12°C° 0 mm 2 m/S 747 mmHg 96%
    03:00 +12°C° 0 mm 2 m/S 747 mmHg 96%
    04:00 +12°C° 0 mm 1 m/S 748 mmHg 95%
    05:00 +12°C° 0 mm 1 m/S 748 mmHg 94%
    06:00 +14°C° 0 mm 2 m/S 748 mmHg 85%
    07:00 +15°C° 0 mm 2 m/S 748 mmHg 76%
    08:00 +17°C° 0 mm 2 m/S 748 mmHg 67%
    09:00 +19°C° 0 mm 3 m/S 748 mmHg 61%
    10:00 +20°C° 0 mm 3 m/S 748 mmHg 56%
    11:00 +22°C° 0 mm 4 m/S 748 mmHg 51%
    12:00 +24°C° 0 mm 3 m/S 748 mmHg 50%
    13:00 +25°C° 0 mm 3 m/S 748 mmHg 50%
    14:00 +26°C° 0 mm 3 m/S 747 mmHg 49%
    15:00 +25°C° 0.1 mm 3 m/S 747 mmHg 53%
    16:00 +25°C° 0.1 mm 4 m/S 747 mmHg 57%
    17:00 +25°C° 0.1 mm 4 m/S 747 mmHg 61%
    18:00 +22°C° 0.1 mm 3 m/S 747 mmHg 69%
    19:00 +21°C° 0.1 mm 3 m/S 747 mmHg 78%
    20:00 +20°C° 0.1 mm 2 m/S 747 mmHg 86%
    21:00 +19°C° 0.2 mm 2 m/S 747 mmHg 88%
    22:00 +19°C° 0.2 mm 2 m/S 747 mmHg 90%
    23:00 +18°C° 0.2 mm 2 m/S 747 mmHg 91%

    28 Mai, Dienstag

    Zeit Temperatur Niederschläge Wind Luftdruck Luftfeuchtigkeit
    00:00 +18°C° 0 mm 2 m/S 747 mmHg 92%
    01:00 +19°C° 0 mm 1 m/S 747 mmHg 92%
    02:00 +19°C° 0 mm 1 m/S 747 mmHg 93%
    03:00 +19°C° 0 mm 1 m/S 746 mmHg 93%
    04:00 +19°C° 0 mm 1 m/S 746 mmHg 93%
    05:00 +18°C° 0 mm 2 m/S 746 mmHg 93%
    06:00 +19°C° 0 mm 2 m/S 746 mmHg 90%
    07:00 +20°C° 0 mm 2 m/S 746 mmHg 87%
    08:00 +21°C° 0 mm 2 m/S 746 mmHg 83%
    09:00 +21°C° 0.2 mm 3 m/S 746 mmHg 82%
    10:00 +22°C° 0.2 mm 4 m/S 746 mmHg 81%
    11:00 +22°C° 0.2 mm 4 m/S 746 mmHg 80%
    12:00 +25°C° 0.2 mm 4 m/S 746 mmHg 75%
    13:00 +26°C° 0.2 mm 4 m/S 745 mmHg 70%
    14:00 +27°C° 0.2 mm 3 m/S 745 mmHg 65%
    15:00 +27°C° 1.2 mm 4 m/S 745 mmHg 66%
    16:00 +27°C° 1.2 mm 4 m/S 745 mmHg 68%
    17:00 +27°C° 1.2 mm 4 m/S 744 mmHg 69%
    18:00 +25°C° 0.2 mm 3 m/S 745 mmHg 72%
    19:00 +24°C° 0.2 mm 3 m/S 745 mmHg 74%
    20:00 +21°C° 0.2 mm 3 m/S 745 mmHg 77%
    21:00 +21°C° 0 mm 3 m/S 745 mmHg 79%
    22:00 +20°C° 0 mm 3 m/S 745 mmHg 80%
    23:00 +20°C° 0 mm 4 m/S 745 mmHg 82%

    29 Mai, Mittwoch

    Zeit Temperatur Niederschläge Wind Luftdruck Luftfeuchtigkeit
    00:00 +19°C° 0 mm 4 m/S 744 mmHg 82%
    01:00 +19°C° 0 mm 4 m/S 744 mmHg 81%
    02:00 +18°C° 0 mm 4 m/S 744 mmHg 81%
    03:00 +18°C° 0.3 mm 4 m/S 744 mmHg 84%
    04:00 +17°C° 0.3 mm 3 m/S 744 mmHg 86%
    05:00 +17°C° 0.3 mm 3 m/S 744 mmHg 88%
    06:00 +18°C° 0.1 mm 4 m/S 744 mmHg 86%
    07:00 +19°C° 0.1 mm 4 m/S 744 mmHg 84%
    08:00 +20°C° 0.1 mm 4 m/S 744 mmHg 83%
    09:00 +22°C° 0 mm 4 m/S 744 mmHg 75%
    10:00 +25°C° 0 mm 4 m/S 745 mmHg 68%
    11:00 +27°C° 0 mm 4 m/S 745 mmHg 61%
    12:00 +28°C° 0 mm 4 m/S 745 mmHg 57%
    13:00 +28°C° 0 mm 4 m/S 745 mmHg 52%
    14:00 +29°C° 0 mm 5 m/S 745 mmHg 48%
    15:00 +29°C° 0 mm 4 m/S 745 mmHg 51%
    16:00 +28°C° 0 mm 4 m/S 745 mmHg 53%
    17:00 +28°C° 0 mm 4 m/S 745 mmHg 55%
    18:00 +26°C° 0 mm 3 m/S 745 mmHg 63%
    19:00 +24°C° 0 mm 2 m/S 745 mmHg 72%
    20:00 +22°C° 0 mm 1 m/S 746 mmHg 80%
    21:00 +21°C° 0 mm 1 m/S 746 mmHg 83%
    22:00 +20°C° 0 mm 1 m/S 746 mmHg 86%
    23:00 +19°C° 0 mm 1 m/S 746 mmHg 89%
    Mehr zeigen